Location: Chmeli�t?
(49.8978°N, 15.0526°E)
Time: 07:38:00
(UTC+00:00)

Cosmos 2074 Rocket - Pass Details

Date: 04 October 2020
Orbit: 967 x 987 km, 82.9° (Epoch: 30 October)

Event Time Altitude Azimuth Distance (km) Brightness Sun altitude
Rises 22:10:05 0° 347° (NNW) 3,694 7.8 -44.2°
Reaches altitude 10° 22:12:39 10° 344° (NNW) 2,739 6.9 -44.3°
Enters shadow 22:14:39 21° 338° (NNW) 2,032 6.1 -44.4°
